Regional Weather Roundup
Issued by NWS Newport/Morehead, NC

Current Version | Previous Version | Graphics & Text | Print | Product List | Glossary Off
Versions: 1 2 3 4 5 6 7 8 9 10 11 12 13 14 15 16 17 18 19 20 21 22 23 24 25 26 27 28 29 30 31 32 33 34 35 36 37 38 39 40 41 42 43 44 45 46 47 48 49 50
000 ASUS42 KMHX 270125 RWRMHX WEATHER ROUNDUP FOR EASTERN NORTH CAROLINA NATIONAL WEATHER SERVICE NEWPORT/MOREHEAD CITY NC 900 PM EDT WED JUL 26 2017 NOTE: "FAIR" INDICATES FEW OR NO CLOUDS BELOW 12,000 FEET WITH NO SIGNIFICANT WEATHER AND/OR OBSTRUCTIONS TO VISIBILITY NCZ015>017-031-032-045>047-102-103-270200- NORTH COAST CITY SKY/WX TMP DP RH WIND PRES REMARKS EDENTON CLEAR 75 68 79 CALM 30.12R ELIZABETH CITY CLEAR 75 69 81 E8 30.12R KITTY HAWK CLEAR 74 65 73 CALM 30.11S MANTEO CLEAR 74 65 75 E6 30.13R $$ NCZ045>047-081-094-103-104-270200- CENTRAL COAST CITY SKY/WX TMP DP RH WIND PRES REMARKS FRISCO CLEAR 74 66 76 NE6 30.11S $$ NCZ095-097-098-100-101-270200- SOUTHERN COAST CITY SKY/WX TMP DP RH WIND PRES REMARKS BEAUFORT CLOUDY 78 70 76 NE6 30.10S CEDAR ISLAND NOT AVBL JACKSONVILLE CLEAR 79 71 76 E10 30.09S PINEY ISLAND CLEAR N/A N/A N/A E9 30.10S WILMINGTON CLOUDY 78 69 73 E6 30.09R $$ NCZ011>013-027>030-043-044-078>080-089-090>093-098-270200- COASTAL PLAIN CITY SKY/WX TMP DP RH WIND PRES REMARKS AHOSKIE N/A 73 68 83 SE3 30.11R CLINTON PTCLDY 79 69 71 CALM 30.09R ELIZABETHTOWN NOT AVBL GOLDSBORO CLEAR 80 72 77 SE3 30.07S GREENVILLE CLEAR 79 68 69 SE5 30.11S HAVELOCK PTCLDY 75 67 76 SE5 30.11S KENANSVILLE MOCLDY 77 68 73 CALM 30.10R KINSTON CLEAR 79 68 69 SE6 30.10R NEW BERN PTCLDY 77 67 71 E5 30.11S RICHLANDS CLEAR 76 68 76 SE3 30.10R ROCKY MOUNT CLEAR 77 71 82 SE3 30.09R WASHINGTON CLEAR 76 68 76 SE5 30.11R WHITEVILLE CLOUDY 78 70 76 CALM 30.09R $$ AMZ130-135-150-152-154-156-158-170-250-252-270-ANZ085-086-088-633-658-670-270200- MARINE OBSERVATIONS STATION/POSITION TIME TEMP WIND PRES WAVE SWELL AIR SEA DIR/SP/G HT/PER HT/PER (UTC) (F) (DEG/KT/KT) (MB) (FT/S) (FT/S) CHESAPEAKE LIGHT NOT AVBL 64 E VA BEACH 0050 75 78 70/ 10/ 12 1020.4 3/ 6 3/ 6 DUCK 0100 75 75 90/ 9/ 10 1019.5 2 E DUCK 0100 75 N/A 3/ 7 OREGON INLET 0100 75 76 70/ 8/ 11 1019.6 13E OREGON INLT 0048 78 N/A 3/ 6 3/ 6 HATTERAS CG 0100 76 79 90/ 7/ 10 1019.2 DIAMOND BUOY 0050 80 83 50/ 10/ 14 1019.1 3/ 6 2/ 6 CAPE LOOKOUT 0100 78 60/ 13/ 14 1018.8 BEAUFORT LAB 0100 78 81 70/ 5/ 7 1018.7 30 SE NEW RVR IN 0108 79 84 80/ 14/ 19 1018.9 30 SE NEW RVR IN 0113 84 N/A 3/ 5 27 SE WRIGHTSVLE 0108 81 83 100/ 14/ 19 1018.4 5 SE WRIGHTSVLE 0108 80 81 90/ 12/ 19 1018.7 225 S CAPE HAT 0050 81 83 140/ 6/ 8 1017.8 3/ 9 2/ 9 41 SE CHARLESTON 0100 80 83 150/ 4/ 6 1017.5 $$

USA.gov is the U.S. government's official web portal to all federal, state and local government web resources and services.